This demonstration page uses our WeatherBlox Daily Observations layout. Learn more.

Left ArrowRight Arrow

34.02893, -84.19858

Hourly Observations for March 13, 2022

Temp ( °F °C ) Dew Point ( °F °C ) Humidity (%) Winds ( mph kmh ) Pressure ( in mb ) Visibility ( mi km ) Precip ( " mm )
12:53 am 00:53 Clear 26 -3.3 6 -14.4 42 42 WNW 8 13 30.38 1029 10 16 0.00 0.00
1:53 am 01:53 Clear 25 -3.9 6 -14.4 44 44 NW 6 9 30.39 1029 10 16 0.00 0.00
3:53 am 03:53 Clear 24 -4.4 8 -13.3 50 50 W 5 7 30.40 1030 10 16 0.00 0.00
4:53 am 04:53 Clear 23 -5 9 -12.8 55 55 NW 5 7 30.40 1030 10 16 0.00 0.00
5:53 am 05:53 Clear 23 -5 9 -12.8 55 55 W 5 7 30.41 1030 10 16 0.00 0.00
6:53 am 06:53 Clear 23 -5 10 -12.2 57 57 NW 3 6 30.43 1030 10 16 0.00 0.00
7:53 am 07:53 Sunny 22 -5.6 11 -11.7 63 63 NNW 5 7 30.45 1031 10 16 0.00 0.00
8:53 am 08:53 Sunny 27 -2.8 11 -11.7 51 51 N 5 7 30.47 1032 10 16 0.00 0.00
9:53 am 09:53 Sunny 31 -0.6 10 -12.2 42 42 NNW 9 15 30.49 1033 10 16 0.00 0.00
10:53 am 10:53 Sunny 34 1.1 10 -12.2 37 37 NW 3 6 30.50 1033 10 16 0.00 0.00
11:53 am 11:53 Sunny 38 3.3 9 -12.8 30 30 S 6 9 30.50 1033 10 16 0.00 0.00
12:53 pm 12:53 Sunny 42 5.6 10 -12.2 27 27 VRB 3 6 30.49 1032 10 16 0.00 0.00
1:53 pm 13:53 Sunny 71 21.7 11 -11.7 10 10 VRB 5 7 30.43 1031 10 16 0.00 0.00
2:53 pm 14:53 Sunny 72 22.2 15 -9.4 11 11 WSW 8 13 30.40 1029 10 16 0.00 0.00
3:53 pm 15:53 Sunny 71 21.7 14 -10 11 11 S 5 7 30.38 1029 10 16 0.00 0.00
4:53 pm 16:53 Sunny 65 18.3 14 -10 14 14 VRB 3 6 30.36 1028 10 16 0.00 0.00
5:53 pm 17:53 Sunny 73 22.8 16 -8.9 11 11 VRB 6 9 30.35 1028 10 16 0.00 0.00
6:53 pm 18:53 Sunny 73 22.8 17 -8.3 12 12 WSW 5 7 30.36 1028 10 16 0.00 0.00
7:53 pm 19:53 Clear 54 12.2 18 -7.8 24 24 Calm 30.39 1029 10 16 0.00 0.00
8:53 pm 20:53 Clear 46 7.8 26 -3.3 46 46 Calm 30.40 1030 10 16 0.00 0.00
9:53 pm 21:53 Clear 42 5.6 24 -4.4 49 49 Calm 30.43 1030 10 16 0.00 0.00
10:53 pm 22:53 Clear 38 3.3 25 -3.9 60 60 Calm 30.44 1031 10 16 0.00 0.00
11:53 pm 23:53 Clear 36 2.2 26 -3.3 67 67 Calm 30.44 1031 10 16 0.00 0.00

Powered by AerisWeather